Location: Caltech
(34.1382°N, 118.1253°W)
Time: 00:54:31
(UTC-07:00)

Iridium 3 - Visible Passes

Search period start: 17 August 2017 00:00
Search period end: 27 August 2017 00:00
Orbit: 776 x 779 km, 86.4° (Epoch: 16 August)

Date Brightness Start Highest point End Pass type
(mag) Time Alt. Az. Time Alt. Az. Time Alt. Az.
18 Aug 7.8 05:19:32 10° NNE 05:24:00 28° E 05:28:26 10° SE visible
19 Aug 8.5 04:47:21 10° NE 04:50:14 15° ENE 04:53:05 10° ESE visible
21 Aug 6.9 05:19:15 10° NNE 05:24:11 42° E 05:29:06 10° SSE visible
22 Aug 8.1 04:46:30 10° NNE 04:50:30 22° E 04:54:29 10° SE visible
23 Aug 8.7 04:15:13 10° ENE 04:16:40 11° ENE 04:18:07 10° E visible
24 Aug 6.1 05:19:09 10° N 05:24:21 63° E 05:29:30 10° SSE visible
25 Aug 7.3 04:46:04 10° NNE 04:50:43 32° E 04:55:22 10° SE visible
26 Aug 8.3 04:13:38 10° NE 04:16:59 17° ENE 04:20:19 10° ESE visible
26 Aug 5.9 05:52:56 10° NNW 05:57:52 44° W 06:02:47 10° SSW visible
